Location: Trois-Rivi�res
(46.3500°N, 72.5500°W)
Time: 09:24:45
(UTC-04:00)

Daily predictions for brighter satellites

Satellite Brightness Start Highest point End
(mag) Time Altitude Azimuth Time Altitude Azimuth Time Altitude Azimuth
NOSS 0 Rocket 4.3 21:12:50 10° NNW 21:18:53 54° NE 21:24:55 10° SE
COSMOS 2428 2.9 21:13:36 10° NNW 21:19:19 80° WSW 21:25:00 10° SSE
Cosmos 1726 2.6 21:16:17 10° N 21:19:58 47° ENE 21:23:38 10° SSE
USA 229 4.5 21:13:08 10° SW 21:19:59 60° NW 21:26:57 10° NE
OTV 4 2.7 21:20:51 10° S 21:21:31 11° SSE 21:22:12 10° SSE
Lacrosse 4 Rocket 3.4 21:24:23 10° N 21:27:47 21° NE 21:31:13 10° E
Meteor 1-4 Rocket 3.1 21:25:05 10° N 21:28:42 44° ENE 21:32:13 10° SSE
Cosmos 2058 2.8 21:28:09 10° S 21:32:14 80° E 21:36:22 10° NNE
COSMOS 2455 3.9 21:26:55 10° NNW 21:32:25 35° NE 21:37:53 10° ESE
Cosmos 2151 3.5 21:28:57 10° SSW 21:33:06 62° W 21:37:19 10° N
NOSS 3-1 (A) 3.4 21:33:12 10° SSW 21:39:02 66° ESE 21:45:35 10° NE
Cosmos 1980 4.0 21:33:54 10° NNW 21:39:30 58° ENE 21:44:58 10° SE
Terra 3.3 21:35:58 10° ESE 21:39:42 23° ENE 21:43:27 10° NNE
H-2A R/B 3.3 21:35:11 10° ESE 21:39:48 30° ENE 21:44:30 10° N
Cosmos 1898 Rocket 3.5 21:35:16 10° S 21:40:23 65° ESE 21:45:35 10° NNE
MetOp-B 4.2 21:43:02 10° SSE 21:48:24 83° WSW 21:53:48 10° NNW
Cosmos 1939 Rocket 4.3 21:45:09 10° SSW 21:48:44 34° W 21:52:18 10° NNW
Tiangong 1 1.6 21:47:27 10° WSW 21:50:22 37° S 21:53:15 10° ESE
Cosmos 2219 3.8 21:45:09 10° SW 21:50:51 63° WNW 21:56:34 10° NNE
Cosmos 2237 Rocket 2.4 21:45:33 10° NNW 21:51:16 66° ENE 21:56:27 12° SE
SPOT 1/Viking Rocket 3.6 21:47:07 10° SSE 21:52:16 78° ENE 21:57:27 10° NNW
Cosmos 2150 Rocket 4.1 21:51:06 10° SSW 21:56:34 90° ESE 22:02:04 10° NNE
Cosmos 2360 Rocket 4.4 21:55:34 10° NW 21:59:31 20° W 22:03:29 10° SW
CZ-4 SHROUD 4.4 21:56:42 10° S 21:59:39 38° W 22:02:37 10° NNW
Cosmos 2082 4.1 21:54:57 10° S 22:00:22 45° ESE 22:05:48 10° NE
Cosmos 1869 4.2 21:56:55 10° N 22:00:42 36° ENE 22:03:36 15° SE
Sich 1 3.1 21:56:40 10° S 22:01:05 84° W 22:05:29 10° N
ATLAS 2AS CENTAUR R/B 3.3 21:54:24 10° S 22:01:25 45° ESE 22:08:56 10° NE
Cosmos 1271 Rocket 2.8 21:57:55 10° NNW 22:01:46 79° W 22:05:31 11° S
Cosmos 1862 Rocket 3.9 22:00:21 10° N 22:04:35 50° ENE 22:07:54 16° SSE
Cosmos 1626 2.9 22:02:07 15° SSE 22:04:48 35° E 22:08:16 10° NNE
ATLAS 3B R/B 3.0 22:00:28 10° NW 22:07:33 62° NE 22:13:27 13° SE
CARTOSAT-1 4.3 22:04:59 15° SE 22:08:11 39° ENE 22:12:13 10° N
NOAA 11 4.2 22:03:22 11° SSE 22:08:33 86° ENE 22:14:03 10° NNW
YAOGAN 6 3.2 22:05:08 10° S 22:08:41 53° W 22:12:12 10° NNW
Cosmos 1633 Rocket 3.2 22:04:31 10° SSW 22:08:54 74° W 22:13:16 10° N
Iridium 2 3.7 22:05:33 12° S 22:09:04 64° E 22:12:54 10° N
ERBS 2.3 22:07:08 10° SW 22:10:35 61° SE 22:14:02 10° ENE
Cosmos 2242 Rocket 4.0 22:08:07 10° NNW 22:12:35 64° W 22:17:02 10° S
CZ-4 R/B 3.9 22:08:50 10° NNE 22:13:46 67° ESE 22:18:33 10° S
IGS 5A 4.2 22:14:27 17° SE 22:17:16 41° ENE 22:21:12 10° N
CZ-4C R/B 3.0 22:16:16 19° SSE 22:18:37 69° ENE 22:22:06 10° N
Cosmos 1703 3.3 22:15:15 10° SSW 22:19:09 79° W 22:23:05 10° N
USA 245 3.5 22:21:00 14° SSW 22:22:36 29° W 22:24:38 10° NW
Cosmos 192 4.3 22:19:11 10° NNW 22:24:08 88° ENE 22:27:44 19° SSE
NOSS 3-1 (C) 4.2 22:18:15 10° WSW 22:24:09 58° NW 22:30:49 10° NE
SAR-Lupe-2 4.2 22:24:12 21° SE 22:26:12 42° ENE 22:29:37 10° N
CZ-4C R/B 4.1 22:20:44 10° NNW 22:26:43 32° NNE 22:33:18 10° E
USA 32 4.5 22:22:06 10° NNW 22:27:18 62° W 22:32:28 10° S
Cosmos 2227 Rocket 2.1 22:26:29 10° SSW 22:32:09 82° ESE 22:37:51 10° NNE
Cosmos 1937 Rocket 4.0 22:29:20 10° SSW 22:34:29 62° WNW 22:39:39 10° NNE
DMSP B5D2-2 4.3 22:30:48 10° NNE 22:35:54 51° E 22:39:27 19° S
Aureole 2 Rocket 4.2 22:37:28 10° N 22:39:57 20° ENE 22:41:29 15° E
Cosmos 990 Rocket 4.1 22:35:12 10° SSW 22:40:19 75° WNW 22:45:31 10° NNE
DELTA 2 DEB (DPAF) 4.5 22:41:00 18° S 22:44:14 61° WSW 22:48:42 10° NNW
Okean 1-7 3.9 22:42:53 10° N 22:46:49 35° ENE 22:48:46 23° ESE
SL-16 R/B 2.2 22:41:17 10° NNW 22:47:00 81° ENE 22:50:39 23° SSE
CZ-4B R/B 4.5 22:41:56 10° N 22:47:01 49° WNW 22:51:58 10° SW
ARGOS 4.1 22:44:45 11° SSW 22:49:33 42° W 22:54:39 10° NNW
Cosmos 2333 Rocket 3.2 22:46:10 10° NW 22:51:30 40° WSW 22:55:43 15° S
Cosmos 1455 3.1 22:49:41 10° NNW 22:53:19 43° W 22:55:49 18° SSW
Cosmos 2297 Rocket 2.2 22:52:56 10° SSW 22:58:37 89° WNW 23:04:18 10° NNE
Cosmos 2219 Rocket 3.8 22:54:10 10° NW 22:58:44 26° WSW 23:03:06 11° SSW
Cosmos 2251 Rocket 4.3 22:57:36 10° N 23:02:39 41° ENE 23:05:45 21° ESE
NOSS 2-3 (C) 4.3 23:00:19 23° S 23:03:08 46° ESE 23:08:35 10° NE
SeaSat 1 3.7 23:00:35 15° ESE 23:04:00 33° NE 23:08:25 10° NNW
Cosmos 1703 Rocket 3.5 23:01:48 10° N 23:06:12 88° E 23:08:19 31° S
Lacrosse 4 Rocket 1.8 23:02:30 10° NW 23:06:54 61° WSW 23:08:55 30° S
Cosmos 44 Rocket 3.7 23:04:46 24° S 23:07:33 48° ESE 23:12:36 10° NE
Cosmos 1269 Rocket 4.3 23:04:19 10° NNW 23:09:33 61° WSW 23:12:32 25° S
Cosmos 1933 3.5 23:07:48 10° NNW 23:11:52 71° W 23:13:41 31° S
Cosmos 1607 4.4 23:08:31 10° NNW 23:14:34 53° NE 23:18:53 19° ESE
Terra 2.5 23:14:21 22° SSW 23:17:10 46° W 23:21:47 10° NNW
COSMOS 2455 3.3 23:12:45 10° NW 23:18:36 52° WSW 23:21:50 26° S
H-2A R/B 3.0 23:15:25 19° SSW 23:19:00 44° W 23:24:14 10° NNW
Cosmos 1603 4.0 23:15:41 10° NNW 23:21:20 62° ENE 23:24:29 27° SE
NOSS 2-3 (D) 4.0 23:21:10 22° SSW 23:24:19 65° ESE 23:30:02 10° NE
Cosmos 1340 Rocket 4.1 23:23:54 24° ESE 23:24:22 25° E 23:27:37 10° NE
Cosmos 1048 Rocket 4.4 23:20:28 10° NNW 23:25:43 56° WSW 23:28:25 28° S
Tiangong 1 2.5 23:23:45 10° WSW 23:25:23 25° WSW 23:25:23 25° WSW
Cosmos 158 Rocket 3.9 23:22:59 10° NNW 23:28:19 85° ENE 23:30:39 34° SSE
Cosmos 1125 Rocket 3.8 23:23:43 14° SSW 23:28:22 67° WNW 23:33:41 10° NNE
Cosmos 2074 Rocket 4.2 23:25:47 28° SSE 23:29:01 58° E 23:35:12 10° NNE
Cosmos 2221 Rocket 4.0 23:24:59 10° NNW 23:29:28 57° W 23:31:33 29° SSW
CZ-4B R/B 3.3 23:29:56 18° E 23:30:45 20° ENE 23:33:17 10° NNE
Cosmos 1709 Rocket 4.3 23:27:43 17° SSW 23:32:24 64° WNW 23:38:30 10° N
Cosmos 2237 Rocket 4.0 23:30:38 10° NW 23:34:46 21° W 23:38:17 12° SW
Cosmos 389 Rocket 2.7 23:33:54 10° NNW 23:37:25 62° W 23:38:11 47° SSW
Cosmos 372 Rocket 3.9 23:36:14 25° SSW 23:39:21 88° WNW 23:44:37 10° NNE
Meteor 1-26 Rocket 4.4 23:38:00 10° NNW 23:43:36 65° W 23:46:26 30° S
Cosmos 1892 3.0 23:49:55 45° ESE 23:50:21 48° E 23:54:02 10° NNE
H-2A R/B 3.4 23:47:10 10° NNE 23:51:07 35° E 23:51:48 33° ESE
GEOS 3 Rocket 4.1 23:49:13 21° ESE 23:52:36 56° NE 23:57:41 10° NNW
